TimeMDT,TemperatureF,Dew PointF,Humidity,Sea Level PressureIn,VisibilityMPH,Wind Direction,Wind SpeedMPH,Gust SpeedMPH,PrecipitationIn,Events,Conditions,WindDirDegrees,DateUTC
12:55 AM,55.9,52.0,87,30.22,10.0,Calm,Calm,-,N/A,,Clear,0,2013-06-28 06:55:00
1:55 AM,55.9,51.1,84,30.22,10.0,North,-9999.0,-,N/A,,Clear,0,2013-06-28 07:55:00
2:55 AM,54.0,51.1,90,30.23,10.0,Calm,Calm,-,N/A,,Clear,0,2013-06-28 08:55:00
3:55 AM,53.1,50.0,89,30.24,10.0,Calm,Calm,-,N/A,,Clear,0,2013-06-28 09:55:00
4:55 AM,53.1,50.0,89,30.24,10.0,Variable,4.6,-,N/A,,Scattered Clouds,0,2013-06-28 10:55:00
5:55 AM,48.9,48.0,97,30.26,10.0,WNW,3.5,-,N/A,,Clear,300,2013-06-28 11:55:00
6:55 AM,55.0,52.0,89,30.26,10.0,West,3.5,-,N/A,,Mostly Cloudy,280,2013-06-28 12:55:00
7:55 AM,62.1,52.0,70,30.26,10.0,Calm,Calm,-,N/A,,Clear,0,2013-06-28 13:55:00
8:55 AM,66.0,53.1,63,30.25,10.0,NNE,3.5,-,N/A,,Clear,30,2013-06-28 14:55:00
9:55 AM,69.1,54.0,58,30.25,10.0,NE,4.6,-,N/A,,Clear,50,2013-06-28 15:55:00
10:55 AM,73.9,54.0,50,30.24,10.0,NNW,3.5,-,N/A,,Clear,340,2013-06-28 16:55:00
11:55 AM,75.0,55.0,50,30.24,10.0,Calm,Calm,-,N/A,,Clear,0,2013-06-28 17:55:00
12:55 PM,77.0,55.0,47,30.22,10.0,Variable,3.5,-,N/A,,Clear,0,2013-06-28 18:55:00
1:55 PM,80.1,55.0,42,30.20,10.0,Variable,3.5,-,N/A,,Clear,0,2013-06-28 19:55:00
2:55 PM,80.1,55.9,43,30.19,10.0,SE,5.8,-,N/A,,Clear,130,2013-06-28 20:55:00
3:55 PM,82.0,54.0,38,30.17,10.0,Variable,3.5,-,N/A,,Clear,0,2013-06-28 21:55:00
4:55 PM,82.9,55.0,38,30.15,10.0,SSE,4.6,-,N/A,,Clear,160,2013-06-28 22:55:00
5:55 PM,84.0,57.0,40,30.14,10.0,Variable,3.5,-,N/A,,Clear,0,2013-06-28 23:55:00
6:55 PM,84.0,57.0,40,30.11,10.0,Calm,Calm,-,N/A,,Clear,0,2013-06-29 00:55:00
7:55 PM,86.0,57.9,38,30.09,10.0,Calm,Calm,-,N/A,,Clear,0,2013-06-29 01:55:00
8:55 PM,79.0,61.0,54,30.09,10.0,Calm,Calm,-,N/A,,Clear,0,2013-06-29 02:55:00
9:55 PM,69.1,62.1,78,30.09,10.0,NNE,3.5,-,N/A,,Clear,20,2013-06-29 03:55:00
10:55 PM,66.9,60.1,79,30.10,10.0,Calm,Calm,-,N/A,,Clear,0,2013-06-29 04:55:00
11:55 PM,63.0,57.9,84,30.10,10.0,Calm,Calm,-,N/A,,Clear,0,2013-06-29 05:55:00